Date,TemperatureHighF,TemperatureAvgF,TemperatureLowF,DewpointHighF,DewpointAvgF,DewpointLowF,HumidityHigh,HumidityAvg,HumidityLow,PressureMaxIn,PressureMinIn,WindSpeedMaxMPH,WindSpeedAvgMPH,GustSpeedMaxMPH,PrecipitationSumIn
2013-1-1,48.6,44.1,38.1,36.4,30.0,21.0,76,58,39,30.01,29.88,10,2,10,0.00
2013-1-2,40.2,35.8,29.8,31.7,28.9,23.6,85,76,65,30.22,29.97,8,1,8,0.00
2013-1-3,41.2,31.7,22.8,24.4,19.8,16.7,89,62,44,30.25,30.14,9,1,9,0.00
2013-1-4,46.6,35.5,22.4,23.7,20.9,17.8,85,57,37,30.24,30.12,15,3,15,0.00
2013-1-5,50.6,39.6,27.1,30.1,21.3,15.9,70,49,28,30.37,30.17,11,2,11,0.00
2013-1-6,51.7,43.5,30.5,33.8,30.4,28.2,92,61,41,30.18,30.03,13,2,15,0.00
2013-1-7,48.9,38.3,24.8,33.1,28.3,22.5,92,68,47,30.44,30.14,8,1,8,0.00
2013-1-8,53.5,35.1,22.2,35.9,28.4,20.5,96,79,48,30.43,30.34,13,1,13,0.00
2013-1-9,60.4,44.3,26.5,48.6,38.2,25.5,97,81,61,30.39,30.25,12,1,13,0.00
2013-1-10,59.2,45.1,30.0,39.4,30.4,25.9,87,59,31,30.57,30.39,9,1,10,0.00
2013-1-11,43.5,40.8,35.6,42.2,36.2,28.8,97,84,64,30.47,30.09,9,1,9,0.03
2013-1-12,55.1,44.2,40.3,50.0,43.1,39.7,98,96,82,30.17,30.09,6,0,6,0.00
2013-1-13,66.4,53.6,43.8,60.3,51.9,43.3,99,94,80,30.12,29.97,12,1,13,0.00
2013-1-14,64.8,55.6,39.6,60.7,51.5,37.6,95,86,75,30.27,29.95,16,4,16,0.14
2013-1-15,39.4,37.9,36.4,37.9,36.7,35.4,97,96,93,30.33,30.13,12,2,13,1.00
2013-1-16,42.7,38.5,35.2,41.1,37.4,34.2,98,96,92,30.14,29.86,13,1,13,0.39
2013-1-17,43.4,38.2,33.7,42.8,37.5,32.9,99,97,90,30.12,29.96,9,1,9,0.40
2013-1-18,43.5,34.5,26.6,33.7,25.5,13.8,99,73,30,30.49,30.10,15,2,15,0.02
2013-1-19,53.5,41.0,25.5,32.4,28.0,23.0,93,62,40,30.43,30.01,16,4,16,0.00
2013-1-20,60.3,47.3,31.0,33.3,25.4,9.9,66,44,23,30.05,29.85,23,5,23,0.00
2013-1-21,52.7,37.6,26.3,23.5,16.4,4.0,74,45,19,30.07,29.77,28,3,28,0.00
2013-1-22,31.6,23.4,16.9,8.7,-1.7,-7.7,47,33,21,30.29,29.93,20,4,20,0.00
2013-1-23,31.2,20.6,6.3,15.6,2.8,-2.4,87,50,24,30.36,30.13,15,2,15,0.00
2013-1-24,29.4,19.7,9.8,17.4,9.4,0.3,94,68,31,30.55,30.07,22,2,22,0.00
2013-1-25,23.7,17.9,8.6,18.8,11.7,4.5,88,77,50,30.54,30.08,17,2,18,0.00
2013-1-26,37.0,27.0,16.7,25.8,21.3,14.8,93,80,59,30.44,30.08,11,0,11,0.00
2013-1-27,40.5,28.7,19.8,25.7,22.1,18.4,95,78,50,30.61,30.44,12,1,12,0.00
2013-1-28,49.9,39.2,32.5,43.7,34.3,24.7,94,83,71,30.48,30.07,15,4,15,0.19
2013-1-29,74.8,61.4,48.2,56.3,50.9,43.6,88,70,51,30.11,29.95,15,3,17,0.00
2013-1-30,70.5,63.6,56.8,63.5,58.6,54.0,99,84,73,29.95,29.20,31,8,31,0.93
2013-1-31,63.4,42.6,29.2,61.7,27.2,14.6,96,56,36,29.91,29.21,25,8,32,0.47
2013-2-1,35.0,27.8,15.5,25.7,10.2,0.9,84,49,30,30.39,29.77,26,4,28,0.00
2013-2-2,33.7,23.5,13.2,25.7,14.6,5.4,94,71,40,30.39,30.01,18,2,18,0.00
2013-2-3,41.2,30.5,21.5,30.5,23.4,13.3,95,77,46,30.01,29.82,21,2,21,0.02
2013-2-4,36.9,30.4,19.3,22.3,16.8,11.6,83,57,45,30.11,29.89,14,2,15,0.00
2013-2-5,56.1,40.2,27.7,34.9,28.9,21.2,89,66,42,29.92,29.80,21,2,21,0.00
2013-2-6,55.3,39.7,26.2,34.5,28.0,24.2,94,67,33,30.34,29.92,15,1,15,0.00
2013-2-7,39.8,34.1,25.8,29.2,25.9,22.6,91,73,54,30.42,30.16,9,1,9,0.00
2013-2-8,49.7,38.8,32.4,41.4,32.7,23.1,97,80,52,30.16,29.77,24,2,25,0.35
2013-2-9,48.1,36.8,23.0,23.5,16.3,10.2,76,46,22,30.37,29.97,22,3,22,0.00
2013-2-10,45.1,32.8,17.3,30.6,18.7,13.9,90,59,33,30.49,30.23,14,1,14,0.00
2013-2-11,58.7,48.9,35.7,51.0,40.9,19.6,98,78,24,30.23,29.74,21,5,21,0.06
2013-2-12,60.2,50.3,39.6,32.0,25.5,19.0,71,39,24,29.97,29.81,25,4,25,0.00
2013-2-13,42.5,37.8,32.2,35.9,31.2,27.4,97,78,62,29.92,29.64,9,1,9,0.06
2013-2-14,52.2,38.1,27.4,34.3,27.9,21.5,98,71,31,30.02,29.79,12,2,12,0.01
2013-2-15,59.9,43.6,26.8,39.2,31.6,23.8,94,67,35,30.04,29.87,17,2,17,0.05
2013-2-16,38.9,35.6,29.3,37.2,27.6,13.8,96,74,50,30.00,29.83,14,2,14,0.01
2013-2-17,30.5,26.7,22.0,17.2,7.5,1.2,71,45,30,30.24,29.87,23,5,24,0.00
2013-2-18,47.4,33.3,17.9,22.4,12.2,4.9,64,43,21,30.38,30.16,16,3,16,0.00
2013-2-19,45.8,41.0,35.8,41.0,29.6,16.4,89,66,36,30.16,29.74,25,7,25,0.04
2013-2-20,46.1,36.0,25.9,18.7,14.9,11.0,65,43,26,30.15,29.87,24,4,25,0.00
2013-2-21,44.9,33.1,24.4,18.7,15.8,12.6,67,50,32,30.32,30.12,21,2,21,0.00
2013-2-22,36.6,33.2,29.7,30.2,23.4,17.8,86,67,56,30.37,30.19,10,1,10,0.00
2013-2-23,52.2,39.1,32.9,42.7,35.4,29.6,96,87,69,30.20,29.82,6,0,7,0.00
2013-2-24,56.9,43.8,31.7,42.3,32.0,20.2,98,69,27,30.11,29.80,17,2,17,0.00
2013-2-25,45.9,32.8,20.8,23.2,20.1,17.0,87,62,36,30.23,30.11,10,1,11,0.00
2013-2-26,41.7,33.2,23.8,40.9,30.3,18.9,97,89,70,30.22,29.59,13,2,15,1.20
2013-2-27,55.2,45.1,35.1,44.3,37.1,31.0,98,77,44,29.70,29.55,19,3,19,0.01
2013-2-28,47.2,41.1,33.6,34.1,29.4,24.7,90,64,41,29.76,29.63,14,3,16,0.00
2013-3-1,41.9,38.3,34.0,30.2,26.5,21.8,82,62,53,29.91,29.75,14,2,14,0.00
2013-3-2,37.8,33.5,27.7,25.7,22.1,18.7,85,63,50,29.90,29.82,12,1,12,0.00
2013-3-3,44.4,33.7,24.5,22.6,18.6,15.1,79,55,36,29.94,29.80,17,3,17,0.00
2013-3-4,50.5,32.6,20.8,18.6,14.1,9.9,76,49,21,30.05,29.94,18,2,18,0.00
2013-3-5,51.1,39.4,27.9,34.4,23.7,13.5,96,56,29,30.07,29.75,15,2,15,0.07
2013-3-6,40.6,35.2,32.2,35.0,32.2,28.5,97,90,64,30.03,29.57,26,2,27,1.32
2013-3-7,47.4,38.5,25.9,28.6,26.3,23.8,94,64,43,30.20,30.02,20,3,21,0.04
2013-3-8,47.2,39.8,29.7,28.8,26.4,23.3,87,60,46,30.29,30.17,22,3,22,0.00
2013-3-9,59.7,41.6,24.9,31.9,24.4,11.6,95,58,16,30.35,30.25,10,1,10,0.00
2013-3-10,64.1,46.7,26.4,33.2,27.2,23.1,93,53,24,30.32,30.18,12,2,13,0.00
2013-3-11,61.7,52.2,40.4,51.0,40.9,26.0,83,66,37,30.21,29.88,20,3,20,0.00
2013-3-12,63.9,55.0,41.1,56.2,45.7,30.1,95,73,45,29.94,29.67,26,5,26,0.90
2013-3-13,50.4,40.0,28.7,32.9,24.7,14.9,94,58,30,30.10,29.90,24,4,24,0.00
2013-3-14,49.5,37.9,28.1,21.2,16.4,10.9,62,43,22,30.17,30.05,25,4,26,0.00
2013-3-15,58.8,45.2,27.3,34.5,24.7,14.9,68,45,33,30.11,29.78,21,3,21,0.00
2013-3-16,67.2,49.4,37.3,55.5,42.7,32.0,96,79,52,29.87,29.58,19,2,19,0.23
2013-3-17,41.7,36.5,32.3,37.5,34.0,31.0,95,91,82,30.27,29.86,13,2,13,0.05
2013-3-18,33.2,32.4,32.1,32.1,31.4,30.6,97,96,94,30.29,29.90,12,1,12,0.30
2013-3-19,60.4,43.4,31.9,44.7,25.5,2.7,98,63,12,29.96,29.72,32,4,32,0.35
2013-3-20,53.9,42.9,31.5,20.4,12.4,2.9,56,30,17,30.01,29.75,27,5,27,0.00
2013-3-21,38.1,33.5,24.7,28.6,14.0,7.9,72,45,32,29.94,29.75,21,4,21,0.00
2013-3-22,51.9,34.0,22.6,23.2,15.1,9.7,74,47,24,30.00,29.87,20,3,20,0.00
2013-3-23,57.2,36.6,22.5,27.0,21.0,15.4,85,58,20,30.06,29.89,11,1,16,0.00
2013-3-24,43.1,35.4,30.6,31.3,26.0,21.8,96,71,43,30.00,29.64,11,1,14,0.00
2013-3-25,39.9,34.4,31.5,36.1,32.6,30.8,98,93,80,29.72,29.53,6,0,6,0.65
2013-3-26,47.7,38.6,27.7,32.6,28.4,24.5,96,69,44,30.03,29.72,18,2,18,0.12
2013-3-27,49.1,40.5,30.8,29.9,25.8,21.7,86,58,36,30.16,30.03,25,4,25,0.00
2013-3-28,50.4,39.8,28.4,30.1,25.6,23.0,83,59,40,30.26,30.13,22,3,25,0.00
2013-3-29,57.4,43.2,31.6,34.1,27.8,22.7,84,58,27,30.28,30.14,15,1,16,0.00
2013-3-30,62.9,46.0,27.8,33.6,28.0,24.7,90,54,24,30.23,30.07,18,2,18,0.00
2013-3-31,53.4,44.5,38.7,49.5,39.5,29.0,97,83,54,30.09,29.74,9,1,11,0.02
2013-4-1,63.2,48.8,37.6,47.5,37.2,22.1,99,69,35,29.99,29.76,23,3,24,0.01
2013-4-2,52.7,40.9,26.4,25.4,15.7,6.8,79,40,16,30.18,29.99,21,3,21,0.00
2013-4-3,55.6,39.8,22.4,22.8,15.0,6.9,79,42,15,30.38,30.17,20,3,20,0.00
2013-4-4,47.7,36.4,23.9,34.1,20.4,10.8,95,58,23,30.43,30.05,13,1,15,0.19
2013-4-5,66.7,48.3,35.4,42.1,33.4,26.9,97,64,23,30.05,29.83,15,1,16,0.25
2013-4-6,59.6,46.2,32.0,31.3,23.7,16.1,80,45,20,30.31,30.03,16,2,16,0.00
2013-4-7,72.3,55.9,35.3,44.4,36.7,26.8,75,50,34,30.25,29.99,23,6,23,0.00
2013-4-8,80.5,66.8,44.8,51.2,46.0,39.9,87,50,30,30.07,29.92,21,4,21,0.00
2013-4-9,85.4,74.2,56.6,58.0,52.7,49.7,79,49,32,30.07,29.92,18,4,18,0.00
2013-4-10,89.9,78.4,59.3,59.6,54.9,51.1,79,46,30,29.97,29.78,21,4,21,0.00
2013-4-11,85.5,74.5,57.7,62.8,56.8,52.1,84,56,36,29.84,29.69,21,4,21,0.00
2013-4-12,80.2,70.6,61.3,65.7,57.1,38.0,95,66,34,29.70,29.52,31,5,31,0.58
2013-4-13,72.7,59.8,42.2,44.0,35.9,24.9,85,44,19,29.94,29.70,20,3,21,0.00
2013-4-14,73.3,59.1,38.8,44.2,38.1,27.5,83,48,29,30.09,29.94,14,2,15,0.00
2013-4-15,61.2,56.4,50.9,55.3,51.4,43.7,95,84,56,30.25,30.07,10,1,10,0.11
2013-4-16,73.5,62.6,54.1,60.6,56.5,52.4,95,81,63,30.29,30.13,15,3,15,0.00
2013-4-17,82.9,69.7,58.2,63.9,59.7,56.1,95,73,44,30.19,30.08,16,2,16,0.00
2013-4-18,78.2,67.1,59.3,66.7,59.3,55.7,97,78,48,30.17,29.96,23,3,23,0.13
2013-4-19,76.3,67.7,56.7,66.8,61.8,52.0,94,82,67,29.96,29.59,35,7,35,0.50
2013-4-20,62.6,52.8,39.7,51.9,31.4,24.0,86,46,24,30.30,29.72,19,4,23,0.00
2013-4-21,53.7,45.5,36.1,34.3,29.5,24.9,82,55,37,30.57,30.30,20,3,20,0.00
2013-4-22,57.9,45.3,29.7,40.2,34.3,27.9,94,68,42,30.55,30.35,16,3,16,0.00
2013-4-23,62.4,51.6,44.2,47.6,42.5,37.8,94,72,56,30.37,30.10,13,2,13,0.00
2013-4-24,77.0,60.2,39.9,57.5,49.9,39.1,98,73,43,30.11,29.80,29,4,29,0.03
2013-4-25,67.8,55.7,42.1,51.6,36.8,24.6,84,52,23,30.29,29.97,14,2,14,0.01
2013-4-26,69.4,53.0,35.6,42.0,37.6,33.7,95,61,29,30.45,30.29,13,1,13,0.00
2013-4-27,72.2,58.8,44.0,49.6,43.5,40.2,90,60,33,30.39,30.24,12,2,12,0.00
2013-4-28,58.6,55.1,50.3,53.5,47.0,40.1,94,75,55,30.25,30.11,11,1,11,0.05
2013-4-29,63.3,57.1,52.1,58.4,55.0,49.7,97,93,82,30.13,29.98,9,2,9,0.33
2013-4-30,64.0,56.9,53.8,58.2,54.7,52.5,98,92,78,30.26,30.05,10,2,18,0.04
2013-5-1,71.2,60.6,52.7,53.1,46.4,36.2,96,64,30,30.38,30.24,16,3,17,0.01
2013-5-2,68.3,55.7,44.5,49.6,45.7,41.4,95,71,43,30.40,30.29,16,2,16,0.00
2013-5-3,68.5,53.7,39.8,52.4,45.2,39.3,99,76,43,30.36,30.23,16,3,16,0.00
2013-5-4,65.0,53.0,40.1,51.4,44.9,38.2,95,75,52,30.30,30.14,14,3,14,0.00
2013-5-5,62.9,50.8,40.7,48.0,42.4,37.5,92,74,52,30.22,30.09,18,3,18,0.00
2013-5-6,59.7,54.3,50.0,58.5,52.3,47.4,97,93,77,30.14,29.97,18,4,18,0.45
2013-5-7,61.8,58.2,54.2,60.7,57.3,53.5,98,97,83,29.98,29.84,17,4,18,2.11
2013-5-8,65.4,56.8,49.0,58.9,54.7,48.4,99,93,70,29.99,29.92,16,1,16,0.55
2013-5-9,80.2,61.4,47.3,63.5,55.0,47.0,99,83,40,30.01,29.92,13,1,13,0.01
2013-5-10,83.7,69.3,53.3,62.4,58.1,52.8,99,72,39,30.01,29.84,27,2,27,0.16
2013-5-11,79.8,68.8,61.3,65.7,61.4,57.5,98,79,48,29.88,29.69,19,2,19,0.01
2013-5-12,65.8,59.8,40.7,60.1,41.2,27.5,89,54,25,30.04,29.73,19,3,19,0.00
2013-5-13,60.0,48.3,34.9,41.6,33.0,24.6,94,60,27,30.18,30.03,14,2,14,0.00
2013-5-14,70.2,53.0,32.3,47.7,37.5,30.7,96,60,30,30.23,30.00,16,2,16,0.00
2013-5-15,88.8,69.5,48.4,66.2,55.1,41.8,86,62,41,30.01,29.70,18,3,18,0.00
2013-5-16,87.5,72.6,62.1,68.4,59.8,52.9,97,67,39,29.93,29.77,16,2,16,0.07
2013-5-17,82.3,70.7,58.7,64.8,60.0,49.2,98,73,34,30.11,29.91,10,2,12,0.08
2013-5-18,64.9,61.9,59.9,61.5,60.2,58.5,98,94,82,30.19,30.09,8,1,8,0.03
2013-5-19,70.4,63.4,59.1,66.9,62.2,58.6,99,96,85,30.18,30.05,7,1,9,0.05
2013-5-20,83.0,70.9,64.1,71.0,66.8,63.5,99,88,64,30.10,29.96,10,1,10,0.01
2013-5-21,85.0,73.5,63.3,72.9,68.4,62.4,99,85,62,29.99,29.85,9,1,9,0.00
2013-5-22,86.3,75.6,65.6,73.3,68.8,63.2,99,81,57,29.92,29.80,17,3,19,0.02
2013-5-23,79.3,70.2,62.4,70.3,66.1,61.2,97,87,67,29.87,29.73,13,2,14,0.16
2013-5-24,62.4,58.8,47.1,61.6,48.1,31.8,98,70,42,30.17,29.74,23,3,23,0.08
2013-5-25,68.3,50.9,34.6,42.6,34.4,29.6,92,56,24,30.25,30.11,20,3,24,0.00
2013-5-26,77.1,57.9,41.5,45.2,37.9,27.2,90,54,19,30.24,30.11,19,1,19,0.00
2013-5-27,68.3,56.2,39.3,57.1,47.2,37.5,96,74,40,30.28,30.16,6,0,6,0.00
2013-5-28,85.4,68.2,49.2,67.2,59.5,48.7,99,77,49,30.20,30.04,19,3,19,0.01
2013-5-29,88.2,78.3,66.6,70.7,65.6,62.8,89,66,45,30.11,30.05,17,4,17,0.00
2013-5-30,89.8,78.9,63.0,72.6,65.5,60.6,93,65,42,30.16,30.09,12,2,12,0.00
2013-5-31,87.9,76.7,61.7,69.5,64.6,60.0,96,68,46,30.13,30.01,13,3,18,0.00
2013-6-1,88.5,78.1,64.2,71.4,66.3,62.0,94,69,47,30.03,29.90,19,3,19,0.00
2013-6-2,81.8,75.2,70.4,72.2,67.5,63.7,89,77,65,29.92,29.82,18,5,18,0.00
2013-6-3,83.7,72.4,66.7,71.1,66.9,62.5,97,84,57,29.94,29.79,16,1,16,0.25
2013-6-4,78.0,65.9,54.2,65.5,52.0,39.1,98,66,32,30.12,29.94,14,2,16,0.01
2013-6-5,78.8,67.6,52.4,64.0,57.7,50.3,95,72,54,30.15,30.02,13,2,13,0.01
2013-6-6,66.6,63.6,60.8,64.4,59.9,53.2,98,88,63,30.05,29.81,12,1,12,0.01
2013-6-7,69.4,66.1,63.7,67.6,65.1,63.1,99,97,92,29.81,29.58,10,1,13,0.02
2013-6-8,83.8,70.8,62.7,68.7,63.7,58.8,99,81,44,30.06,29.74,11,1,12,0.01
2013-6-9,80.7,69.6,59.5,72.9,66.3,58.9,99,90,74,30.17,30.05,14,2,14,0.01
2013-6-10,83.0,72.1,66.9,74.9,69.4,66.2,99,92,71,30.10,29.78,25,3,25,0.02
2013-6-11,83.8,73.1,64.9,69.5,65.4,62.1,98,79,50,29.87,29.80,14,2,16,0.00
2013-6-12,91.3,75.5,63.7,77.5,67.5,61.4,97,78,49,29.88,29.76,12,1,13,0.01
2013-6-13,85.4,74.5,66.4,73.1,68.1,56.3,99,81,56,29.78,29.50,17,2,19,0.01
2013-6-14,80.0,69.6,58.4,62.4,55.3,51.6,94,62,40,29.98,29.63,18,2,18,0.00
2013-6-15,84.0,69.9,54.1,63.6,57.6,52.4,97,69,36,30.08,29.97,11,1,11,0.00
2013-6-16,85.3,72.8,59.7,70.2,64.6,58.3,97,77,51,30.01,29.89,16,2,16,0.00
2013-6-17,87.0,74.0,67.6,73.7,67.3,64.1,95,81,53,29.96,29.86,14,2,16,0.00
2013-6-18,76.5,68.8,62.6,70.9,66.9,62.0,98,94,82,29.91,29.77,11,1,11,0.00
2013-6-19,75.7,67.9,59.3,66.7,63.9,59.0,99,88,68,30.13,29.87,12,2,12,0.00
2013-6-20,78.7,70.6,64.4,67.0,62.8,55.2,97,78,56,30.25,30.13,14,1,14,0.00
2013-6-21,82.2,70.6,55.9,65.5,58.2,51.1,94,67,45,30.27,30.19,10,1,10,0.00
2013-6-22,86.7,71.8,58.2,71.4,65.3,57.0,98,82,51,30.25,30.11,14,2,14,0.00
2013-6-23,86.9,76.0,67.5,74.1,69.8,66.1,98,83,56,30.18,30.06,11,1,11,0.00
2013-6-24,89.2,77.1,68.8,75.6,71.2,66.9,98,83,59,30.12,30.02,16,1,17,0.00
2013-6-25,90.9,81.7,70.1,75.1,71.5,68.6,97,73,51,30.04,29.89,10,2,11,0.00
2013-6-26,90.0,75.4,67.1,75.4,70.0,65.6,98,85,56,29.91,29.81,22,1,22,0.01
2013-6-27,83.6,73.6,66.2,74.1,69.4,65.6,99,88,66,29.84,29.62,16,2,16,0.00
2013-6-28,90.8,79.7,69.4,74.6,68.4,63.5,91,70,42,29.64,29.44,17,3,19,0.00
2013-6-29,86.9,76.4,63.3,70.5,64.8,59.9,95,70,46,29.67,29.51,12,2,13,0.00
2013-6-30,84.5,74.4,66.1,75.7,69.6,65.2,98,85,66,29.83,29.67,7,1,13,0.00
2013-7-1,82.8,74.4,69.0,74.3,71.0,68.0,99,90,71,29.95,29.82,12,2,12,0.09
2013-7-2,78.3,74.2,70.6,73.1,71.2,69.4,96,90,81,30.15,29.95,14,3,14,0.29
2013-7-3,83.9,74.7,70.3,76.8,72.2,69.4,99,92,72,30.22,30.13,12,1,12,2.36
2013-7-4,88.1,78.8,70.1,75.8,72.4,69.4,99,82,58,30.24,30.14,18,4,18,0.00
2013-7-5,87.2,79.1,72.4,76.5,72.6,69.9,96,81,62,30.22,30.11,17,3,18,0.00
2013-7-6,88.3,79.5,69.3,76.0,72.1,68.7,99,80,56,30.18,30.07,14,3,17,0.00
2013-7-7,87.5,77.7,70.3,75.4,71.9,69.0,96,84,63,30.11,29.99,17,3,18,0.47
2013-7-8,86.3,75.3,67.4,72.8,69.8,66.8,98,84,56,30.11,30.04,15,2,15,0.03
2013-7-9,87.0,77.9,69.6,76.0,71.9,68.4,97,83,59,30.09,29.99,9,1,9,0.00
2013-7-10,90.5,77.3,71.8,77.6,73.6,70.4,98,89,58,30.01,29.87,25,1,25,0.09
2013-7-11,84.3,76.3,71.4,75.6,71.7,69.6,98,87,66,29.90,29.83,11,2,11,0.09
2013-7-12,72.9,69.0,65.5,71.5,66.9,64.3,97,93,87,30.05,29.88,13,1,13,0.60
2013-7-13,82.3,73.9,64.1,74.2,69.7,63.5,99,87,71,30.23,30.03,9,1,11,0.05
2013-7-14,89.0,78.4,71.0,75.2,72.5,70.3,99,84,57,30.32,30.23,9,1,9,0.00
2013-7-15,92.5,80.5,68.9,78.4,72.8,68.3,99,80,52,30.29,30.19,7,1,7,0.00
2013-7-16,93.8,82.4,71.6,79.9,74.7,70.3,97,79,56,30.23,30.14,15,1,15,0.00
2013-7-17,92.7,81.5,72.7,78.2,74.3,71.8,99,81,55,30.20,30.07,9,1,9,0.00
2013-7-18,95.5,82.7,73.0,80.4,75.6,71.9,98,81,53,30.12,29.99,8,1,9,0.00
2013-7-19,93.8,82.4,73.7,79.3,75.0,70.0,98,80,56,30.01,29.87,13,2,13,0.00
2013-7-20,92.1,81.0,75.5,77.7,73.2,69.0,93,78,55,29.91,29.80,14,3,16,0.00
2013-7-21,90.0,77.7,69.0,76.0,71.7,67.4,97,83,57,29.93,29.86,25,1,25,0.21
2013-7-22,87.0,77.6,70.7,77.5,72.8,70.1,99,86,65,29.92,29.74,15,2,15,0.00
2013-7-23,89.1,79.2,71.1,75.4,71.2,67.7,97,79,52,29.75,29.63,13,2,13,0.00
2013-7-24,83.7,75.3,68.5,72.7,68.5,61.2,95,80,62,29.89,29.66,13,2,13,0.00
2013-7-25,78.3,70.3,59.0,63.7,59.1,55.1,94,68,56,30.03,29.87,15,2,18,0.00
2013-7-26,82.8,69.7,55.2,66.1,60.9,54.7,99,77,49,30.09,30.00,8,1,13,0.00
2013-7-27,79.9,71.7,64.0,72.8,67.7,62.9,97,88,74,30.03,29.91,9,2,14,0.10
2013-7-28,84.7,73.8,68.0,71.8,68.8,66.0,98,85,56,29.97,29.87,12,1,12,0.02
2013-7-29,83.5,71.9,64.5,68.8,62.6,51.9,99,76,37,30.16,29.96,11,1,11,0.01
2013-7-30,83.3,70.4,56.6,67.1,61.0,55.8,98,75,46,30.22,30.13,10,1,11,0.00
2013-7-31,80.7,69.2,60.9,70.6,65.4,60.0,98,89,61,30.14,30.00,8,1,12,0.01
2013-8-1,85.2,71.6,66.7,72.7,68.5,65.8,99,91,60,30.00,29.79,17,1,17,0.77
2013-8-2,85.6,74.5,64.5,69.5,66.0,62.8,99,77,47,29.96,29.86,12,2,12,0.01
2013-8-3,84.8,72.6,64.4,71.3,65.8,61.5,97,81,50,29.96,29.90,6,0,6,0.00
2013-8-4,81.5,70.4,57.7,66.8,60.3,55.6,99,74,42,30.03,29.91,14,1,15,0.00
2013-8-5,80.3,67.6,53.1,64.1,58.5,52.5,98,75,45,30.10,30.00,12,1,12,0.00
2013-8-6,79.7,70.6,64.5,70.9,66.4,62.4,96,87,70,30.03,29.97,13,2,14,0.01
2013-8-7,84.2,75.4,69.2,73.7,70.5,68.0,97,85,68,30.04,29.97,14,2,15,0.00
2013-8-8,83.0,76.4,70.5,75.3,72.0,68.4,97,87,73,30.01,29.95,14,2,14,0.01
2013-8-9,91.5,81.0,72.2,77.7,74.0,71.3,98,81,55,29.96,29.85,19,3,19,0.00
2013-8-10,81.0,75.4,70.2,74.8,72.0,68.9,98,89,73,30.08,29.93,14,1,15,1.09
2013-8-11,83.3,74.6,69.8,74.0,70.8,68.2,98,89,69,30.10,29.99,7,0,7,0.19
2013-8-12,89.2,77.3,69.1,76.2,71.6,68.4,99,84,52,30.02,29.89,8,1,8,0.00
2013-8-13,86.8,75.9,71.1,74.8,71.4,69.0,97,87,59,29.89,29.73,11,1,11,0.02
2013-8-14,76.8,67.3,53.6,69.3,55.6,48.1,95,69,44,30.11,29.80,15,1,15,0.00
2013-8-15,76.8,61.1,48.5,60.6,52.9,48.0,99,78,43,30.18,30.09,13,1,13,0.00
2013-8-16,76.8,63.6,50.1,61.6,55.8,49.6,99,79,46,30.20,30.12,9,1,9,0.00
2013-8-17,75.6,64.2,52.7,63.7,58.6,52.2,99,84,60,30.25,30.18,15,2,15,0.05
2013-8-18,66.8,63.3,59.9,64.5,61.9,59.0,98,95,90,30.23,30.17,10,1,10,1.78
2013-8-19,73.9,67.0,60.3,69.2,65.0,59.9,99,93,84,30.19,30.06,9,1,9,0.02
2013-8-20,85.0,73.0,63.2,73.9,68.6,62.9,99,87,65,30.17,30.07,10,1,11,0.00
2013-8-21,86.5,74.2,65.4,75.6,69.6,64.8,99,87,63,30.19,30.06,12,1,12,0.00
2013-8-22,88.8,75.1,64.7,71.6,68.2,64.1,98,81,48,30.08,29.94,10,1,10,0.00
2013-8-23,71.5,67.2,63.2,70.3,66.2,62.9,99,97,93,30.11,29.92,16,1,16,0.98
2013-8-24,80.2,68.2,57.8,66.1,61.1,56.1,99,81,46,30.32,30.11,15,1,16,0.01
2013-8-25,81.3,67.6,55.4,67.2,60.6,55.0,99,81,49,30.40,30.26,8,1,8,0.00
2013-8-26,85.0,71.2,58.2,67.9,63.0,57.6,99,78,48,30.30,30.02,11,1,11,0.00
2013-8-27,88.8,74.5,64.1,75.6,68.4,62.5,96,83,58,30.03,29.89,9,1,9,0.00
2013-8-28,76.3,72.8,69.8,73.3,70.7,67.6,98,93,86,29.94,29.79,8,1,8,0.16
2013-8-29,82.7,74.4,66.8,73.1,70.9,66.1,99,89,68,30.00,29.81,11,1,12,0.00
2013-8-30,85.2,74.2,64.7,73.7,69.0,64.4,99,85,63,30.03,29.88,14,2,14,0.00
2013-8-31,88.5,74.9,66.8,76.0,70.3,65.9,99,87,60,29.91,29.77,19,2,36,1.00
2013-9-1,88.8,75.6,65.4,76.0,71.0,65.1,99,87,59,29.85,29.75,9,1,9,0.01
2013-9-2,88.5,78.4,69.7,74.9,71.7,69.1,98,81,57,29.80,29.72,10,1,10,0.00
2013-9-3,87.5,75.3,63.6,72.1,68.4,62.0,98,81,49,29.94,29.73,9,0,10,0.00
2013-9-4,81.0,68.2,55.5,67.9,61.2,55.0,98,80,50,30.08,29.94,10,1,10,0.00
2013-9-5,85.3,67.7,55.1,70.8,61.0,54.8,99,82,46,30.11,29.99,4,1,11,0.00
2013-9-6,76.1,61.1,54.2,60.4,54.3,50.5,97,80,46,30.23,30.11,12,1,13,0.00
2013-9-7,80.6,68.0,51.7,66.0,60.6,51.2,98,79,56,30.14,29.93,11,2,11,0.00
2013-9-8,88.0,72.5,59.2,73.4,65.5,58.5,99,82,52,30.00,29.85,21,1,24,0.96
2013-9-9,78.7,69.1,64.1,68.6,63.9,57.2,99,85,65,30.18,30.00,8,1,8,0.00
2013-9-10,89.4,76.2,64.5,76.9,70.4,63.9,99,84,58,30.16,30.08,10,1,10,0.00
2013-9-11,91.0,79.0,68.6,77.7,72.6,68.0,99,82,55,30.13,29.99,14,1,14,0.00
2013-9-12,89.0,74.4,67.5,77.6,69.9,65.6,99,87,60,29.99,29.74,25,1,27,0.36
2013-9-13,76.7,68.3,56.6,68.3,60.1,51.1,99,78,43,29.94,29.70,14,1,14,0.00
2013-9-14,70.0,57.0,46.0,54.9,48.7,44.6,98,77,46,30.16,29.93,12,1,12,0.00
2013-9-15,76.0,59.9,45.1,61.8,53.5,44.6,99,82,54,30.23,30.08,13,2,16,0.00
2013-9-16,71.7,61.2,52.0,64.1,58.3,51.4,99,91,66,30.22,30.05,11,1,11,0.00
2013-9-17,68.5,56.9,44.5,55.2,49.2,42.0,99,78,41,30.41,30.22,17,2,17,0.00
2013-9-18,71.8,54.7,39.5,55.5,48.2,39.0,99,81,44,30.34,30.18,8,1,8,0.01
2013-9-19,74.8,60.9,48.3,62.9,55.7,47.5,99,85,58,30.20,30.07,13,1,13,0.00
2013-9-20,77.3,64.1,52.6,67.2,60.6,52.0,99,89,68,30.08,29.94,8,1,8,0.00
2013-9-21,69.1,65.8,62.3,67.1,64.4,61.7,98,95,92,29.94,29.66,17,2,17,0.36
2013-9-22,73.5,63.5,52.0,62.6,58.0,50.1,99,84,52,29.94,29.72,9,0,9,0.01
2013-9-23,67.8,55.1,44.1,55.7,48.5,43.2,99,81,53,30.10,29.94,12,1,12,0.00
2013-9-24,74.2,57.7,44.8,59.6,51.8,44.3,99,83,53,30.11,29.94,10,1,10,0.00
2013-9-25,73.3,58.6,47.1,61.2,53.5,46.8,99,85,51,29.98,29.87,9,1,9,0.00
2013-9-26,75.0,61.9,50.2,58.9,54.6,49.2,98,80,42,30.07,29.90,12,1,12,0.00
2013-9-27,71.9,58.9,47.0,61.3,54.7,46.7,99,87,61,30.22,30.07,9,1,12,0.00
2013-9-28,66.0,58.8,51.9,59.1,55.5,51.4,99,90,71,30.29,30.20,10,0,10,0.00
2013-9-29,73.5,59.0,47.1,59.7,53.2,46.7,99,83,45,30.21,30.05,9,0,9,0.00
2013-9-30,77.0,58.8,46.8,63.2,54.0,46.5,99,86,53,30.09,29.97,8,0,10,0.00
2013-10-1,81.0,63.6,52.7,65.1,58.2,52.2,99,85,46,30.08,29.98,9,0,9,0.00
2013-10-2,83.8,67.1,53.5,65.3,59.3,53.0,99,80,44,30.09,30.00,10,1,10,0.00
2013-10-3,82.3,66.1,55.7,70.1,62.0,55.2,99,88,55,30.11,30.03,7,0,7,0.00
2013-10-4,87.5,70.3,59.5,71.8,64.0,58.9,99,83,49,30.09,30.00,7,0,7,0.01
2013-10-5,87.6,71.8,59.7,70.6,65.0,59.4,99,82,50,30.09,29.99,12,1,12,0.00
2013-10-6,85.0,72.7,59.8,70.6,64.8,59.5,100,79,51,30.01,29.88,20,3,20,0.00
2013-10-7,72.7,67.2,52.9,69.9,63.8,50.0,96,89,70,30.04,29.75,20,3,23,0.83
2013-10-8,65.7,53.9,43.9,53.4,47.9,43.3,99,83,50,30.27,30.05,18,1,18,0.00
2013-10-9,58.7,52.8,48.5,52.9,50.1,47.1,98,91,78,30.30,30.19,15,1,16,0.27
2013-10-10,59.8,55.5,51.6,59.0,54.5,49.7,98,96,93,30.19,29.98,13,3,15,0.66
2013-10-11,63.6,59.2,56.3,61.5,58.2,55.7,99,97,90,29.98,29.93,13,1,13,0.25
2013-10-12,62.4,61.2,58.4,61.8,60.5,57.8,99,98,96,30.14,29.95,10,2,14,0.04
2013-10-13,60.5,58.8,57.4,59.7,58.2,56.8,99,98,96,30.29,30.13,10,2,15,0.02
2013-10-14,68.2,59.0,50.6,59.0,55.9,50.1,99,90,66,30.32,30.20,8,1,10,0.01
2013-10-15,70.2,56.9,45.4,57.9,52.6,45.1,99,87,55,30.23,30.09,6,1,9,0.01
2013-10-16,71.9,62.5,57.7,63.0,59.1,56.0,99,89,71,30.09,29.91,6,1,10,0.00
2013-10-17,72.7,64.5,57.0,66.1,61.4,56.4,99,90,75,29.91,29.73,15,2,15,0.01
2013-10-18,67.5,56.3,44.6,58.0,46.3,40.8,97,72,40,30.02,29.82,9,1,11,0.00
2013-10-19,62.8,52.4,42.2,56.9,49.8,41.7,99,91,74,29.99,29.79,11,1,11,0.00
2013-10-20,64.9,50.0,36.5,48.5,39.6,34.0,98,72,34,30.11,29.87,9,1,9,0.00
2013-10-21,66.9,50.0,34.3,47.5,41.5,33.8,99,76,43,30.16,29.96,14,2,14,0.00
2013-10-22,70.2,57.8,44.3,53.2,47.8,43.1,97,72,45,29.96,29.78,14,2,14,0.00
2013-10-23,58.6,47.8,36.4,48.0,41.5,34.1,95,80,52,29.94,29.66,17,1,17,0.00
2013-10-24,53.2,42.7,33.8,36.5,32.9,28.3,96,71,43,30.17,29.94,17,2,17,0.00
2013-10-25,53.9,40.0,28.6,33.0,29.0,26.1,95,69,35,30.34,30.15,13,1,13,0.26
2013-10-26,56.4,41.4,27.5,33.9,29.6,25.8,96,68,34,30.33,29.97,18,3,18,0.00
2013-10-27,64.9,47.5,35.1,43.0,37.9,33.0,95,72,41,30.14,29.97,14,1,14,0.00
2013-10-28,67.6,46.6,33.1,46.8,40.4,32.6,98,82,42,30.28,30.13,5,0,5,0.00
2013-10-29,66.3,49.7,36.4,49.0,43.5,35.9,98,82,49,30.38,30.27,9,0,9,0.00
2013-10-30,72.5,55.0,47.4,59.0,51.6,45.8,97,89,62,30.33,30.12,13,0,13,0.03
2013-10-31,68.9,60.4,51.0,61.1,56.2,50.5,99,87,72,30.16,29.77,11,3,19,0.00
2013-11-1,77.2,68.2,56.5,63.4,59.6,50.7,97,76,40,29.77,29.59,22,6,28,0.03
2013-11-2,68.2,56.7,44.5,56.5,45.6,35.1,99,71,33,29.90,29.63,18,2,18,0.00
2013-11-3,58.7,45.7,30.9,41.3,33.0,23.3,95,66,26,30.41,29.90,16,1,16,0.00
2013-11-4,46.5,37.5,30.5,29.7,26.1,21.0,92,65,37,30.63,30.41,14,2,14,0.00
2013-11-5,54.9,43.4,29.4,44.8,36.0,27.7,95,76,49,30.63,30.47,5,0,5,0.00
2013-11-6,68.1,55.0,48.2,53.2,48.6,43.5,94,80,57,30.47,30.07,15,1,15,0.00
2013-11-7,64.3,55.6,43.6,57.9,46.4,24.1,96,73,45,30.09,29.88,17,3,20,0.01
2013-11-8,53.3,41.1,28.6,30.4,25.7,21.6,87,57,29,30.33,30.09,17,2,18,0.00
2013-11-9,56.9,41.4,24.7,32.1,27.8,22.8,95,63,34,30.37,30.07,20,3,20,0.00
2013-11-10,67.2,51.0,35.5,38.4,30.0,23.5,81,48,19,30.26,29.95,14,3,22,0.00
2013-11-11,60.3,47.2,31.8,31.6,28.2,25.5,82,50,28,30.32,30.02,16,3,16,0.00
2013-11-12,51.7,39.4,23.4,35.8,23.7,13.6,75,54,39,30.42,29.95,13,2,17,0.00
2013-11-13,45.6,33.1,22.8,20.6,17.3,14.1,80,54,29,30.52,30.41,14,2,14,0.00
2013-11-14,62.2,41.0,23.0,24.5,18.4,14.9,82,46,18,30.41,30.23,11,1,11,0.00
2013-11-15,62.8,47.2,28.4,45.6,28.5,19.5,94,52,20,30.28,30.17,10,1,10,0.13
2013-11-16,55.8,49.0,41.1,51.6,47.5,40.3,98,95,85,30.31,30.21,6,0,6,0.19
2013-11-17,61.4,56.0,51.0,59.9,55.0,50.5,99,96,91,30.23,29.76,19,2,19,0.01
2013-11-18,67.3,59.7,44.9,60.5,38.3,23.6,96,49,21,29.95,29.71,21,4,21,0.00
2013-11-19,49.9,41.5,30.8,29.4,27.2,25.5,81,58,40,30.37,29.95,15,2,15,0.01
2013-11-20,46.3,35.0,27.8,28.3,25.7,24.0,91,71,42,30.54,30.37,16,2,16,0.00
2013-11-21,48.5,40.7,29.7,41.1,35.4,26.9,92,82,70,30.56,30.39,4,0,5,0.00
2013-11-22,65.6,54.5,43.7,56.8,48.3,40.7,90,80,67,30.40,30.00,12,2,15,0.00
2013-11-23,60.0,48.1,33.6,52.2,29.0,13.7,79,51,22,30.21,30.00,18,3,20,0.00
2013-11-24,33.7,26.4,16.9,19.5,6.2,1.3,72,43,28,30.55,30.21,20,4,20,0.00
2013-11-25,37.7,27.1,14.1,15.4,11.0,8.5,82,54,30,30.58,30.35,12,2,12,0.00
2013-11-26,36.9,34.3,32.7,36.1,27.3,11.6,97,79,36,30.36,29.60,13,2,13,0.81
2013-11-27,41.3,37.9,28.9,39.8,30.2,12.1,98,75,48,30.10,29.49,19,4,20,0.98
2013-11-28,41.1,29.9,19.2,21.6,16.9,12.0,85,60,38,30.47,30.10,11,1,11,0.00
2013-11-29,44.9,29.9,17.7,27.2,21.2,15.7,94,73,45,30.72,30.45,7,1,9,0.02
2013-11-30,40.3,26.9,16.8,26.2,21.1,15.3,95,80,53,30.72,30.38,5,0,7,0.00
2013-12-1,55.2,35.0,18.6,34.6,28.1,17.2,96,78,42,30.38,30.02,5,0,5,0.00
2013-12-2,45.7,40.5,35.9,36.5,34.7,32.6,92,80,64,30.02,29.86,7,0,7,0.00
2013-12-3,57.9,41.6,31.6,42.4,36.4,30.6,97,83,53,30.00,29.87,5,0,5,0.00
2013-12-4,60.8,50.2,36.9,52.7,45.8,35.3,96,86,70,30.06,29.98,8,1,8,0.00
2013-12-5,65.4,59.5,52.5,62.4,56.9,50.5,97,91,84,30.06,29.92,17,3,17,0.00
2013-12-6,67.4,52.9,40.2,64.7,51.3,39.2,96,94,85,30.13,29.87,18,4,20,0.42
2013-12-7,43.5,37.1,26.7,39.2,33.3,25.5,96,87,70,30.54,30.09,13,1,13,0.11
2013-12-8,31.9,29.2,26.7,30.8,25.8,21.2,96,87,72,30.57,30.28,14,1,14,0.00
2013-12-9,38.8,34.4,31.9,37.5,33.5,30.9,98,96,93,30.31,30.03,5,0,7,0.00
2013-12-10,38.9,33.4,27.7,36.6,30.0,19.2,99,88,59,30.24,29.99,11,1,11,0.34
2013-12-11,45.0,33.5,21.0,23.6,20.6,17.0,89,61,38,30.41,30.24,10,2,15,0.08
2013-12-12,38.3,29.9,24.0,22.9,14.2,4.5,86,55,26,30.42,30.25,11,1,11,0.00
2013-12-13,48.8,35.5,27.3,26.0,16.2,8.4,80,47,28,30.31,30.21,16,3,16,0.00
2013-12-14,36.8,33.2,30.3,34.1,30.0,23.2,97,88,73,30.31,29.74,9,1,9,0.40
2013-12-15,49.4,39.5,33.4,41.1,31.2,24.6,99,75,46,29.97,29.64,22,3,22,0.00
2013-12-16,44.0,37.1,29.9,30.4,28.0,25.9,85,70,53,30.16,29.95,8,2,11,0.00
2013-12-17,51.7,34.4,24.3,38.8,30.1,23.1,96,85,57,30.13,29.90,14,1,14,0.00
2013-12-18,44.3,34.2,25.3,30.7,22.7,19.0,97,66,37,30.22,30.00,16,2,17,0.00
2013-12-19,64.4,46.6,27.6,32.2,25.8,19.6,81,49,24,30.20,30.09,20,3,20,0.00
2013-12-20,61.7,52.5,37.9,40.8,33.6,26.3,75,49,35,30.13,30.00,19,3,19,0.00
2013-12-21,68.6,60.2,47.4,61.6,51.4,39.3,84,73,58,30.04,29.91,22,5,24,0.00
2013-12-22,70.5,65.6,60.9,64.8,60.8,56.8,94,85,67,29.99,29.82,33,7,33,0.20
2013-12-23,63.3,55.7,35.8,62.0,52.4,33.3,99,89,68,30.21,29.90,15,2,15,0.63
2013-12-24,40.6,31.7,21.4,33.2,21.5,5.8,98,69,38,30.49,30.19,21,2,22,0.01
2013-12-25,34.6,23.9,14.5,16.7,13.8,11.1,88,67,41,30.58,30.38,8,1,8,0.00
2013-12-26,50.0,32.5,19.3,27.3,19.7,14.0,83,62,32,30.38,30.21,17,2,19,0.00
2013-12-27,52.2,36.4,22.4,24.3,20.3,16.8,86,55,28,30.44,30.32,11,2,15,0.00
2013-12-28,59.2,41.9,26.0,31.8,25.0,20.5,83,54,28,30.36,30.12,15,1,17,0.00
2013-12-29,53.6,44.2,38.5,48.5,40.3,28.3,98,87,50,30.12,29.57,16,1,16,1.57
2013-12-30,48.7,41.4,32.1,39.4,33.9,27.0,93,75,56,30.17,29.82,10,1,10,0.00
2013-12-31,47.1,34.1,25.4,30.0,23.6,17.0,96,68,32,30.33,30.13,20,2,23,0.00
2014-1-1,51.2,35.3,23.6,28.1,23.4,17.8,89,64,38,30.41,30.11,12,1,12,0.00
2014-1-2,38.6,32.0,26.4,32.2,28.1,23.7,96,86,68,30.11,29.60,8,0,8,0.05